This is the latest recevied weather packets stored in our database for station/object K2RMB. If no packets are shown the sender has not sent any weather packets the latest 10 day(s).
| Time | Temp. | Humidity | Pressure | Rain* | Wind** | Luminosity | Snow |
|---|---|---|---|---|---|---|---|
| 1777227470 | 17.22° C | 37% | 1019.5 hPa | 0 mm | - | 942 W/m² | - |
| 1777227166 | 16.11° C | 37% | 1019.9 hPa | 0 mm | - | 941 W/m² | - |
| 1777226863 | 15.56° C | 38% | 1019.5 hPa | 0 mm | - | 274 W/m² | - |
| 1777226562 | 15.56° C | 40% | 1019.9 hPa | 0 mm | - | 195 W/m² | - |
| 1777226258 | 16.11° C | 40% | 1019.9 hPa | 0 mm | - | 241 W/m² | - |
| 1777225954 | 17.22° C | 39% | 1019.9 hPa | 0 mm | - | 506 W/m² | - |
| 1777225649 | 16.11° C | 37% | 1019.9 hPa | 0 mm | - | 928 W/m² | - |
| 1777225347 | 15.56° C | 43% | 1019.9 hPa | 0 mm | - | 899 W/m² | - |
| 1777225044 | 15° C | 43% | 1019.9 hPa | 0 mm | - | 174 W/m² | - |
| 1777224741 | 15.56° C | 42% | 1019.9 hPa | 0 mm | - | 198 W/m² | - |
| 1777224436 | 16.11° C | 42% | 1019.9 hPa | 0 mm | - | 277 W/m² | - |
| 1777224132 | 16.11° C | 39% | 1019.9 hPa | 0 mm | - | 972 W/m² | - |
| 1777223829 | 16.67° C | 41% | 1019.9 hPa | 0 mm | - | 940 W/m² | - |
| 1777223525 | 15.56° C | 41% | 1019.9 hPa | 0 mm | - | 912 W/m² | - |
| 1777223223 | 15.56° C | 41% | 1019.9 hPa | 0 mm | - | 949 W/m² | - |
| 1777222920 | 15.56° C | 42% | 1019.9 hPa | 0 mm | - | 1006 W/m² | - |
| 1777222617 | 14.44° C | 42% | 1019.9 hPa | 0 mm | - | 814 W/m² | - |
| 1777222314 | 15.56° C | 43% | 1019.9 hPa | 0 mm | - | 221 W/m² | - |
| 1777222013 | 15° C | 46% | 1019.9 hPa | 0 mm | - | 997 W/m² | - |
| 1777221708 | 15° C | 43% | 1020.2 hPa | 0 mm | - | 884 W/m² | - |
| 1777221404 | 15° C | 43% | 1020.2 hPa | 0 mm | - | 919 W/m² | - |
| 1777221103 | 15° C | 43% | 1020.2 hPa | 0 mm | - | 921 W/m² | - |
| 1777220803 | 15° C | 42% | 1020.2 hPa | 0 mm | - | 558 W/m² | - |
| 1777220498 | 14.44° C | 44% | 1020.2 hPa | 0 mm | - | 930 W/m² | - |
| 1777220193 | 15° C | 45% | 1020.2 hPa | 0 mm | - | 438 W/m² | - |
* Rain latest hour (hover to see other rain measurements)
** Current wind speed in m/s (hover to see current wind gust speed)